When you browse on this site, cookies collect data to enhance your experience and personalize the content and advertising you see.
Visit our Privacy Policy to learn more. By continuing to use the site, you agree to this use of cookies and data.
  • Em Portugal
  • Lista de países
  • Para 7 dias
  • Temperatura da água
  • Mapas de satélite
  • Mapa do tempo
  • Widgets de tempo
  • user-avatar
    Iniciar Sessão

    Previsão horária em Krzemianka

    Hoje, 25 Maio, Sábado

    Tempo Temperatura Precipitação Vento Pressão Humidade
    00:00 +10°C° 0 mm 2 m/s 737 mmHg 81%
    01:00 +10°C° 0 mm 1 m/s 737 mmHg 80%
    02:00 +10°C° 0 mm 1 m/s 736 mmHg 81%
    03:00 +10°C° 0 mm 1 m/s 736 mmHg 81%
    04:00 +10°C° 0 mm 1 m/s 736 mmHg 81%
    05:00 +10°C° 0 mm 1 m/s 736 mmHg 81%
    06:00 +12°C° 0 mm 2 m/s 736 mmHg 78%
    07:00 +13°C° 0 mm 3 m/s 736 mmHg 76%
    08:00 +15°C° 0 mm 4 m/s 736 mmHg 72%
    09:00 +17°C° 0.1 mm 4 m/s 736 mmHg 68%
    10:00 +17°C° 0.1 mm 5 m/s 736 mmHg 65%
    11:00 +19°C° 0.1 mm 5 m/s 736 mmHg 62%
    12:00 +19°C° 0.4 mm 5 m/s 736 mmHg 67%
    13:00 +17°C° 0.4 mm 5 m/s 736 mmHg 72%
    14:00 +17°C° 0.4 mm 4 m/s 736 mmHg 77%
    15:00 +16°C° 0 mm 5 m/s 736 mmHg 75%
    16:00 +15°C° 0 mm 5 m/s 736 mmHg 73%
    17:00 +15°C° 0 mm 5 m/s 736 mmHg 71%
    18:00 +14°C° 0 mm 5 m/s 736 mmHg 75%
    19:00 +12°C° 0 mm 4 m/s 736 mmHg 79%
    20:00 +11°C° 0 mm 3 m/s 736 mmHg 83%
    21:00 +10°C° 0 mm 3 m/s 736 mmHg 87%
    22:00 +8°C° 0 mm 3 m/s 737 mmHg 91%
    23:00 +7°C° 0 mm 2 m/s 737 mmHg 95%

    Amanhã, 26 Maio, Domingo

    Tempo Temperatura Precipitação Vento Pressão Humidade
    00:00 +7°C° 0 mm 2 m/s 737 mmHg 96%
    01:00 +6°C° 0 mm 2 m/s 737 mmHg 96%
    02:00 +6°C° 0 mm 2 m/s 737 mmHg 97%
    03:00 +6°C° 0 mm 2 m/s 737 mmHg 97%
    04:00 +6°C° 0 mm 2 m/s 737 mmHg 97%
    05:00 +5°C° 0 mm 3 m/s 737 mmHg 97%
    06:00 +8°C° 0 mm 3 m/s 737 mmHg 91%
    07:00 +8°C° 0 mm 4 m/s 737 mmHg 85%
    08:00 +10°C° 0 mm 5 m/s 737 mmHg 78%
    09:00 +10°C° 0 mm 5 m/s 737 mmHg 79%
    10:00 +12°C° 0 mm 5 m/s 737 mmHg 79%
    11:00 +12°C° 0 mm 5 m/s 736 mmHg 79%
    12:00 +12°C° 0.1 mm 5 m/s 736 mmHg 78%
    13:00 +12°C° 0.1 mm 5 m/s 736 mmHg 77%
    14:00 +13°C° 0.1 mm 5 m/s 736 mmHg 76%
    15:00 +13°C° 0.1 mm 5 m/s 736 mmHg 75%
    16:00 +13°C° 0.1 mm 5 m/s 736 mmHg 74%
    17:00 +14°C° 0.1 mm 5 m/s 736 mmHg 73%
    18:00 +13°C° 0 mm 5 m/s 736 mmHg 76%
    19:00 +12°C° 0 mm 4 m/s 735 mmHg 79%
    20:00 +12°C° 0 mm 3 m/s 735 mmHg 83%
    21:00 +11°C° 0 mm 3 m/s 735 mmHg 85%
    22:00 +10°C° 0 mm 3 m/s 735 mmHg 88%
    23:00 +10°C° 0 mm 4 m/s 735 mmHg 91%

    Depois de amanhã, 27 Maio, Segunda-feira

    Tempo Temperatura Precipitação Vento Pressão Humidade
    00:00 +10°C° 0 mm 4 m/s 735 mmHg 88%
    01:00 +11°C° 0 mm 4 m/s 735 mmHg 86%
    02:00 +12°C° 0 mm 4 m/s 735 mmHg 83%
    03:00 +12°C° 0 mm 4 m/s 735 mmHg 85%
    04:00 +12°C° 0 mm 4 m/s 735 mmHg 88%
    05:00 +11°C° 0 mm 4 m/s 734 mmHg 90%
    06:00 +13°C° 0 mm 4 m/s 735 mmHg 87%
    07:00 +14°C° 0 mm 4 m/s 735 mmHg 84%
    08:00 +15°C° 0 mm 5 m/s 735 mmHg 80%
    09:00 +16°C° 0.1 mm 6 m/s 735 mmHg 78%
    10:00 +17°C° 0.1 mm 7 m/s 734 mmHg 75%
    11:00 +18°C° 0.1 mm 8 m/s 734 mmHg 73%
    12:00 +18°C° 0.5 mm 7 m/s 734 mmHg 75%
    13:00 +18°C° 0.5 mm 7 m/s 734 mmHg 77%
    14:00 +19°C° 0.5 mm 6 m/s 734 mmHg 79%
    15:00 +19°C° 1.1 mm 6 m/s 734 mmHg 81%
    16:00 +19°C° 1.1 mm 6 m/s 734 mmHg 84%
    17:00 +17°C° 1.1 mm 5 m/s 734 mmHg 87%
    18:00 +18°C° 0.6 mm 4 m/s 734 mmHg 89%
    19:00 +17°C° 0.6 mm 3 m/s 735 mmHg 92%
    20:00 +16°C° 0.6 mm 2 m/s 735 mmHg 95%
    21:00 +15°C° 0 mm 2 m/s 735 mmHg 96%
    22:00 +14°C° 0 mm 2 m/s 736 mmHg 96%
    23:00 +13°C° 0 mm 2 m/s 736 mmHg 97%

    28 Maio, Terça-feira

    Tempo Temperatura Precipitação Vento Pressão Humidade
    00:00 +13°C° 0 mm 2 m/s 736 mmHg 96%
    01:00 +13°C° 0 mm 1 m/s 736 mmHg 95%
    02:00 +12°C° 0 mm 1 m/s 736 mmHg 94%
    03:00 +12°C° 0 mm 1 m/s 736 mmHg 93%
    04:00 +12°C° 0 mm 1 m/s 736 mmHg 92%
    05:00 +12°C° 0 mm 1 m/s 736 mmHg 92%
    06:00 +12°C° 0 mm 2 m/s 736 mmHg 91%
    07:00 +13°C° 0 mm 2 m/s 736 mmHg 90%
    08:00 +13°C° 0 mm 3 m/s 736 mmHg 88%
    09:00 +13°C° 1.4 mm 3 m/s 736 mmHg 91%
    10:00 +13°C° 1.4 mm 3 m/s 736 mmHg 93%
    11:00 +13°C° 1.4 mm 3 m/s 735 mmHg 95%
    12:00 +14°C° 1.6 mm 3 m/s 735 mmHg 96%
    13:00 +14°C° 1.6 mm 3 m/s 734 mmHg 96%
    14:00 +14°C° 1.6 mm 3 m/s 734 mmHg 97%
    15:00 +16°C° 0.1 mm 3 m/s 734 mmHg 96%
    16:00 +16°C° 0.1 mm 3 m/s 733 mmHg 95%
    17:00 +17°C° 0.1 mm 3 m/s 733 mmHg 93%
    18:00 +16°C° 0 mm 3 m/s 733 mmHg 95%
    19:00 +16°C° 0 mm 3 m/s 733 mmHg 96%
    20:00 +14°C° 0 mm 3 m/s 733 mmHg 97%
    21:00 +14°C° 0.1 mm 3 m/s 733 mmHg 97%
    22:00 +14°C° 0.1 mm 3 m/s 733 mmHg 98%
    23:00 +13°C° 0.1 mm 3 m/s 732 mmHg 98%

    29 Maio, Quarta-feira

    Tempo Temperatura Precipitação Vento Pressão Humidade
    00:00 +13°C° 0.3 mm 3 m/s 732 mmHg 98%
    01:00 +14°C° 0.3 mm 2 m/s 732 mmHg 98%
    02:00 +14°C° 0.3 mm 2 m/s 732 mmHg 99%
    03:00 +14°C° 0.2 mm 2 m/s 732 mmHg 98%
    04:00 +14°C° 0.2 mm 2 m/s 732 mmHg 98%
    05:00 +15°C° 0.2 mm 2 m/s 732 mmHg 98%
    06:00 +15°C° 0 mm 2 m/s 732 mmHg 98%
    07:00 +14°C° 0 mm 3 m/s 732 mmHg 97%
    08:00 +14°C° 0 mm 3 m/s 733 mmHg 96%
    09:00 +14°C° 0.6 mm 3 m/s 733 mmHg 95%
    10:00 +14°C° 0.6 mm 4 m/s 733 mmHg 94%
    11:00 +14°C° 0.6 mm 4 m/s 734 mmHg 93%
    12:00 +14°C° 0.7 mm 5 m/s 734 mmHg 93%
    13:00 +13°C° 0.7 mm 5 m/s 734 mmHg 94%
    14:00 +13°C° 0.7 mm 6 m/s 735 mmHg 94%
    15:00 +11°C° 0.7 mm 6 m/s 735 mmHg 94%
    16:00 +10°C° 0.7 mm 7 m/s 735 mmHg 95%
    17:00 +9°C° 0.7 mm 7 m/s 736 mmHg 95%
    18:00 +9°C° 0.8 mm 7 m/s 736 mmHg 95%
    19:00 +8°C° 0.8 mm 7 m/s 737 mmHg 95%
    20:00 +8°C° 0.8 mm 7 m/s 738 mmHg 95%
    21:00 +7°C° 0.2 mm 6 m/s 738 mmHg 94%
    22:00 +7°C° 0.2 mm 6 m/s 739 mmHg 92%
    23:00 +6°C° 0.2 mm 5 m/s 740 mmHg 91%

    30 Maio, Quinta-feira

    Tempo Temperatura Precipitação Vento Pressão Humidade
    00:00 +6°C° 0 mm 5 m/s 740 mmHg 90%
    01:00 +5°C° 0 mm 4 m/s 740 mmHg 90%
    02:00 +5°C° 0 mm 4 m/s 741 mmHg 89%
    03:00 +4°C° 0 mm 3 m/s 741 mmHg 89%
    04:00 +4°C° 0 mm 3 m/s 742 mmHg 89%
    05:00 +3°C° 0 mm 3 m/s 742 mmHg 90%
    06:00 +5°C° 0 mm 3 m/s 743 mmHg 84%
    07:00 +8°C° 0 mm 3 m/s 743 mmHg 78%
    08:00 +10°C° 0 mm 3 m/s 744 mmHg 72%
    09:00 +11°C° 0 mm 3 m/s 744 mmHg 65%
    10:00 +13°C° 0 mm 3 m/s 744 mmHg 58%
    11:00 +14°C° 0 mm 3 m/s 745 mmHg 51%
    12:00 +16°C° 0 mm 3 m/s 745 mmHg 51%
    13:00 +16°C° 0 mm 3 m/s 745 mmHg 51%
    14:00 +16°C° 0 mm 2 m/s 745 mmHg 51%
    15:00 +16°C° 0 mm 2 m/s 745 mmHg 51%
    16:00 +17°C° 0 mm 2 m/s 745 mmHg 52%
    17:00 +17°C° 0 mm 2 m/s 745 mmHg 52%
    18:00 +15°C° 0 mm 1 m/s 744 mmHg 58%
    19:00 +14°C° 0 mm 1 m/s 744 mmHg 65%
    20:00 +13°C° 0 mm 1 m/s 744 mmHg 71%
    21:00 +12°C° 0 mm 1 m/s 744 mmHg 72%
    22:00 +11°C° 0 mm 1 m/s 744 mmHg 73%
    23:00 +11°C° 0 mm 1 m/s 744 mmHg 74%
    Mostrar mais